AEE764 LGAV-EFHK

Flight info

Callsign AEE764
Flight time 3h 24m
Altitude 36000
Route KRO UT162 KOROS DCT ATFIR DCT RESLA DCT EKNAB DCT OLMIP DCT BAVMA DCT ADUKU DCT ORA DCT NARKA DCT KSC DCT LOGDA M866 GERVI M857 SUWGI DCT BOKSU DCT ROLAV DCT DOLAT DCT ARSAM DCT INTOR
Aircraft A320/M-SDE3FGHIRWY/LB1

Departure

Time 2026-05-05 08:32
Airport Athens Eleftherios Venizelos International Airport (LGAV)

Arrival

Time 2026-05-05 11:56
Airport Helsinki Vantaa Airport (EFHK)
Time Latitude Longitude Altitude Speed Heading
2026-05-05 08:12 37.93606 23.94836 301 ft 0 kts 306°
2026-05-05 08:14 37.93606 23.94837 301 ft 0 kts 306°
2026-05-05 08:23 37.93603 23.94842 301 ft 3 kts 306°
2026-05-05 08:24 37.93589 23.94867 302 ft 2 kts 306°
2026-05-05 08:24 37.93576 23.94891 301 ft 4 kts 297°
2026-05-05 08:24 37.93568 23.94921 302 ft 4 kts 252°
2026-05-05 08:24 37.93583 23.94944 300 ft 4 kts 217°
2026-05-05 08:25 37.93589 23.94949 302 ft 0 kts 217°
2026-05-05 08:27 37.93574 23.94935 300 ft 6 kts 217°
2026-05-05 08:27 37.93526 23.94888 304 ft 11 kts 217°
2026-05-05 08:27 37.93454 23.94861 303 ft 12 kts 147°
2026-05-05 08:28 37.93399 23.94956 301 ft 15 kts 120°
2026-05-05 08:28 37.93311 23.94959 299 ft 15 kts 222°
2026-05-05 08:28 37.93225 23.94882 300 ft 14 kts 214°
2026-05-05 08:28 37.93144 23.94801 300 ft 16 kts 218°
2026-05-05 08:29 37.93054 23.94715 301 ft 17 kts 217°
2026-05-05 08:29 37.92957 23.94623 301 ft 18 kts 216°
2026-05-05 08:29 37.92854 23.94527 302 ft 19 kts 217°
2026-05-05 08:30 37.92638 23.94322 304 ft 19 kts 217°
2026-05-05 08:30 37.92538 23.94321 305 ft 12 kts 127°
2026-05-05 08:30 37.92529 23.94337 306 ft 0 kts 126°
2026-05-05 08:31 37.92527 23.94340 306 ft 2 kts 126°
2026-05-05 08:31 37.92515 23.94361 307 ft 4 kts 126°
2026-05-05 08:31 37.92490 23.94430 308 ft 14 kts 88°
2026-05-05 08:31 37.92628 23.94591 305 ft 59 kts 37°
2026-05-05 08:32 37.93175 23.95110 293 ft 133 kts 37°
2026-05-05 08:32 37.94068 23.95966 363 ft 180 kts 37°
2026-05-05 08:32 37.95067 23.96926 1127 ft 180 kts 36°
2026-05-05 08:32 37.96054 23.97887 1901 ft 179 kts 36°
2026-05-05 08:33 37.97074 23.98899 2254 ft 196 kts 35°
2026-05-05 08:33 37.98222 23.99983 2636 ft 215 kts 34°
2026-05-05 08:33 37.99494 24.01154 3117 ft 235 kts 34°
2026-05-05 08:33 38.00851 24.02428 3753 ft 248 kts 35°
2026-05-05 08:34 38.02238 24.03750 4585 ft 249 kts 35°
2026-05-05 08:34 38.03591 24.05081 5431 ft 249 kts 36°
2026-05-05 08:34 38.04962 24.06427 6309 ft 248 kts 36°
2026-05-05 08:34 38.06335 24.07760 7157 ft 247 kts 35°
2026-05-05 08:35 38.07680 24.09151 7883 ft 252 kts 44°
2026-05-05 08:35 38.08685 24.10999 8637 ft 258 kts 64°
2026-05-05 08:35 38.09085 24.13270 9211 ft 274 kts 87°
2026-05-05 08:35 38.08710 24.15684 9738 ft 289 kts 107°
2026-05-05 08:36 38.07956 24.18059 10468 ft 291 kts 109°
2026-05-05 08:36 38.07181 24.20514 10771 ft 309 kts 108°
2026-05-05 08:36 38.06407 24.23142 10991 ft 327 kts 106°
2026-05-05 08:36 38.05683 24.25935 11467 ft 334 kts 104°
2026-05-05 08:37 38.04977 24.28768 12089 ft 337 kts 104°
2026-05-05 08:37 38.04263 24.31605 12813 ft 337 kts 105°
2026-05-05 08:37 38.03527 24.34420 13649 ft 335 kts 105°
2026-05-05 08:37 38.02778 24.37203 14438 ft 330 kts 106°
2026-05-05 08:38 38.02078 24.39944 15033 ft 331 kts 99°
2026-05-05 08:38 38.01871 24.42811 15711 ft 322 kts 82°
2026-05-05 08:38 38.02277 24.45619 16109 ft 328 kts 68°
2026-05-05 08:38 38.03271 24.48285 16241 ft 340 kts 52°
2026-05-05 08:39 38.04856 24.50552 16387 ft 350 kts 36°
2026-05-05 08:39 38.06881 24.52183 16513 ft 360 kts 21°
2026-05-05 08:39 38.09291 24.53204 16639 ft 372 kts 14°
2026-05-05 08:39 38.11816 24.54147 16813 ft 384 kts 14°
2026-05-05 08:40 38.14410 24.55116 17201 ft 390 kts 14°
2026-05-05 08:40 38.17028 24.56098 17672 ft 394 kts 14°
2026-05-05 08:40 38.19666 24.57092 18141 ft 397 kts 14°
2026-05-05 08:40 38.22336 24.58100 18576 ft 401 kts 13°
2026-05-05 08:41 38.25019 24.59112 18995 ft 404 kts 14°
2026-05-05 08:41 38.27720 24.60129 19414 ft 407 kts 13°
2026-05-05 08:41 38.30449 24.61159 19823 ft 409 kts 13°
2026-05-05 08:41 38.33196 24.62198 20243 ft 412 kts 14°
2026-05-05 08:42 38.35924 24.63230 20640 ft 415 kts 13°
2026-05-05 08:42 38.38704 24.64286 21027 ft 418 kts 14°
2026-05-05 08:42 38.41502 24.65350 21400 ft 421 kts 14°
2026-05-05 08:42 38.44316 24.66421 21766 ft 423 kts 14°
2026-05-05 08:43 38.47145 24.67497 22129 ft 426 kts 14°
2026-05-05 08:43 38.49999 24.68582 22478 ft 428 kts 14°
2026-05-05 08:43 38.52869 24.69673 22817 ft 431 kts 14°
2026-05-05 08:43 38.55757 24.70770 23157 ft 433 kts 14°
2026-05-05 08:44 38.58654 24.71871 23495 ft 436 kts 14°
2026-05-05 08:44 38.61572 24.72982 23804 ft 438 kts 14°
2026-05-05 08:44 38.64506 24.74102 24112 ft 440 kts 14°
2026-05-05 08:44 38.67409 24.75211 24434 ft 440 kts 13°
2026-05-05 08:45 38.70347 24.76337 24902 ft 438 kts 13°
2026-05-05 08:45 38.73259 24.77453 25383 ft 435 kts 13°
2026-05-05 08:45 38.76154 24.78563 25870 ft 432 kts 13°
2026-05-05 08:45 38.79024 24.79665 26366 ft 429 kts 13°
2026-05-05 08:46 38.81847 24.80751 26860 ft 427 kts 13°
2026-05-05 08:46 38.84694 24.81847 27371 ft 424 kts 13°
2026-05-05 08:46 38.87514 24.82934 27872 ft 421 kts 13°
2026-05-05 08:46 38.90319 24.84014 28389 ft 419 kts 13°
2026-05-05 08:47 38.93106 24.85084 28891 ft 417 kts 13°
2026-05-05 08:47 38.94944 24.85790 29234 ft 415 kts 13°
2026-05-05 08:47 38.97701 24.86849 29740 ft 413 kts 13°
2026-05-05 08:47 39.00445 24.87909 30238 ft 410 kts 13°
2026-05-05 08:48 39.03173 24.88964 30653 ft 409 kts 12°
2026-05-05 08:48 39.06798 24.90163 31165 ft 403 kts
2026-05-05 08:48 39.09579 24.90424 31545 ft 398 kts 356°
2026-05-05 08:48 39.11441 24.90263 31803 ft 395 kts 350°
2026-05-05 08:49 39.14125 24.89547 32200 ft 392 kts 341°
2026-05-05 08:49 39.16660 24.88384 32580 ft 390 kts 338°
2026-05-05 08:49 39.19208 24.87158 32967 ft 389 kts 338°
2026-05-05 08:49 39.21748 24.85939 33368 ft 388 kts 338°
2026-05-05 08:50 39.24283 24.84722 33757 ft 387 kts 338°
2026-05-05 08:50 39.26804 24.83512 34118 ft 386 kts 339°
2026-05-05 08:50 39.29290 24.82321 34412 ft 385 kts 338°
2026-05-05 08:50 39.31803 24.81115 34677 ft 385 kts 338°
2026-05-05 08:51 39.34316 24.79905 34924 ft 385 kts 338°
2026-05-05 08:51 39.36832 24.78691 35169 ft 386 kts 338°
2026-05-05 08:51 39.39355 24.77474 35409 ft 386 kts 338°
2026-05-05 08:51 39.41301 24.76534 35586 ft 386 kts 338°
2026-05-05 08:52 39.43814 24.75320 35816 ft 386 kts 338°
2026-05-05 08:52 39.46340 24.74102 36020 ft 387 kts 338°
2026-05-05 08:52 39.48845 24.72891 36087 ft 390 kts 338°
2026-05-05 08:53 39.54023 24.70386 36090 ft 402 kts 338°
2026-05-05 08:53 39.59312 24.67822 36091 ft 407 kts 338°
2026-05-05 08:54 39.64592 24.65257 36092 ft 408 kts 338°
2026-05-05 08:54 39.69924 24.62663 36089 ft 408 kts 338°
2026-05-05 08:55 39.75256 24.60065 36090 ft 409 kts 338°
2026-05-05 08:55 39.80591 24.57461 36094 ft 409 kts 338°
2026-05-05 08:56 39.85898 24.54873 36098 ft 409 kts 338°
2026-05-05 08:56 39.91243 24.52257 36096 ft 409 kts 338°
2026-05-05 08:57 39.96555 24.49646 36095 ft 410 kts 338°
2026-05-05 08:57 40.01907 24.47006 36094 ft 410 kts 338°
2026-05-05 08:58 40.07255 24.44381 36094 ft 410 kts 338°
2026-05-05 08:58 40.12564 24.41766 36094 ft 410 kts 338°
2026-05-05 08:59 40.17910 24.39119 36092 ft 410 kts 338°
2026-05-05 08:59 40.23260 24.36461 36095 ft 411 kts 338°
2026-05-05 09:00 40.28577 24.33822 36097 ft 411 kts 338°
2026-05-05 09:00 40.33936 24.31168 36102 ft 411 kts 338°
2026-05-05 09:01 40.39290 24.28507 36101 ft 411 kts 338°
2026-05-05 09:01 40.44642 24.25841 36100 ft 411 kts 338°
2026-05-05 09:02 40.49953 24.23192 36103 ft 411 kts 338°
2026-05-05 09:02 40.55314 24.20514 36102 ft 411 kts 338°
2026-05-05 09:03 40.60664 24.17837 36105 ft 411 kts 338°
2026-05-05 09:03 40.66012 24.15149 36101 ft 410 kts 338°
2026-05-05 09:04 40.71329 24.12485 36096 ft 410 kts 338°
2026-05-05 09:04 40.76674 24.09799 36099 ft 410 kts 338°
2026-05-05 09:05 40.81974 24.07129 36102 ft 410 kts 338°
2026-05-05 09:05 40.87312 24.04437 36096 ft 410 kts 338°
2026-05-05 09:06 40.92615 24.01751 36090 ft 410 kts 338°
2026-05-05 09:06 40.97943 23.99046 36087 ft 410 kts 338°
2026-05-05 09:07 41.03284 23.96334 36081 ft 410 kts 338°
2026-05-05 09:07 41.08596 23.93641 36077 ft 411 kts 338°
2026-05-05 09:08 41.13942 23.90915 36075 ft 411 kts 338°
2026-05-05 09:08 41.19296 23.88176 36074 ft 411 kts 338°
2026-05-05 09:09 41.24613 23.85459 36069 ft 411 kts 338°
2026-05-05 09:09 41.29977 23.82710 36075 ft 412 kts 338°
2026-05-05 09:10 41.35311 23.79961 36080 ft 413 kts 338°
2026-05-05 09:10 41.40723 23.77385 36084 ft 414 kts 345°
2026-05-05 09:11 41.46417 23.76020 36089 ft 415 kts 348°
2026-05-05 09:11 41.52082 23.74704 36095 ft 415 kts 348°
2026-05-05 09:12 41.57785 23.73369 36099 ft 415 kts 348°
2026-05-05 09:12 41.63484 23.72035 36103 ft 415 kts 348°
2026-05-05 09:13 41.69141 23.70704 36105 ft 415 kts 348°
2026-05-05 09:13 41.74846 23.69369 36108 ft 415 kts 348°
2026-05-05 09:14 41.80538 23.68041 36114 ft 415 kts 348°
2026-05-05 09:14 41.86224 23.66698 36121 ft 415 kts 348°
2026-05-05 09:15 41.91912 23.65350 36125 ft 414 kts 348°
2026-05-05 09:15 41.97560 23.64007 36125 ft 414 kts 348°
2026-05-05 09:16 42.03244 23.62662 36129 ft 414 kts 348°
2026-05-05 09:16 42.08932 23.61319 36129 ft 414 kts 348°
2026-05-05 09:17 42.14577 23.59977 36126 ft 414 kts 348°
2026-05-05 09:17 42.20260 23.58622 36126 ft 414 kts 348°
2026-05-05 09:18 42.25916 23.57277 36128 ft 414 kts 348°
2026-05-05 09:18 42.31605 23.55917 36126 ft 414 kts 348°
2026-05-05 09:19 42.37281 23.54554 36122 ft 414 kts 348°
2026-05-05 09:19 42.42969 23.53183 36124 ft 415 kts 348°
2026-05-05 09:20 42.48629 23.51820 36119 ft 415 kts 348°
2026-05-05 09:20 42.54329 23.50455 36121 ft 415 kts 349°
2026-05-05 09:21 42.60026 23.49085 36122 ft 416 kts 348°
2026-05-05 09:21 42.65695 23.47714 36125 ft 416 kts 348°
2026-05-05 09:22 42.71401 23.46332 36128 ft 416 kts 348°
2026-05-05 09:22 42.77103 23.44940 36131 ft 416 kts 348°
2026-05-05 09:23 42.82811 23.43552 36127 ft 416 kts 349°
2026-05-05 09:23 42.88473 23.42179 36127 ft 416 kts 349°
2026-05-05 09:24 42.94175 23.40791 36121 ft 415 kts 349°
2026-05-05 09:24 42.99877 23.39400 36113 ft 415 kts 349°
2026-05-05 09:25 43.05571 23.37999 36106 ft 416 kts 348°
2026-05-05 09:25 43.11266 23.36598 36104 ft 416 kts 349°
2026-05-05 09:26 43.16931 23.35201 36102 ft 416 kts 349°
2026-05-05 09:26 43.22651 23.33798 36098 ft 416 kts 349°
2026-05-05 09:27 43.28352 23.32396 36098 ft 416 kts 349°
2026-05-05 09:27 43.34018 23.30969 36094 ft 416 kts 347°
2026-05-05 09:28 43.39664 23.29172 36089 ft 416 kts 345°
2026-05-05 09:28 43.45271 23.27136 36086 ft 416 kts 345°
2026-05-05 09:29 43.50878 23.25108 36088 ft 416 kts 345°
2026-05-05 09:29 43.56477 23.23154 36083 ft 417 kts 345°
2026-05-05 09:30 43.62117 23.21212 36083 ft 417 kts 345°
2026-05-05 09:30 43.67735 23.19260 36083 ft 417 kts 345°
2026-05-05 09:31 43.73369 23.17283 36078 ft 417 kts 345°
2026-05-05 09:31 43.79008 23.15290 36081 ft 418 kts 345°
2026-05-05 09:32 43.84610 23.13321 36079 ft 418 kts 345°
2026-05-05 09:32 43.90257 23.11342 36078 ft 418 kts 345°
2026-05-05 09:33 43.95906 23.09353 36078 ft 418 kts 345°
2026-05-05 09:33 44.00607 23.07688 36078 ft 419 kts 345°
2026-05-05 09:34 44.06223 23.05692 36075 ft 419 kts 345°
2026-05-05 09:34 44.11890 23.03682 36077 ft 419 kts 345°
2026-05-05 09:35 44.17549 23.01667 36078 ft 419 kts 345°
2026-05-05 09:35 44.26016 22.98658 36077 ft 420 kts 345°
2026-05-05 09:36 44.31686 22.96634 36075 ft 420 kts 345°
2026-05-05 09:36 44.37314 22.94620 36079 ft 420 kts 345°
2026-05-05 09:37 44.42989 22.92587 36077 ft 420 kts 345°
2026-05-05 09:37 44.48661 22.90548 36074 ft 421 kts 345°
2026-05-05 09:38 44.54333 22.88506 36069 ft 421 kts 345°
2026-05-05 09:38 44.60014 22.86458 36073 ft 421 kts 345°
2026-05-05 09:39 44.65660 22.84413 36071 ft 421 kts 345°
2026-05-05 09:39 44.71345 22.82355 36068 ft 421 kts 345°
2026-05-05 09:40 44.77038 22.80296 36067 ft 422 kts 345°
2026-05-05 09:40 44.82723 22.78226 36068 ft 422 kts 345°
2026-05-05 09:41 44.88415 22.76148 36071 ft 422 kts 345°
2026-05-05 09:41 44.94087 22.74079 36069 ft 423 kts 345°
2026-05-05 09:42 44.99788 22.71996 36067 ft 423 kts 345°
2026-05-05 09:42 45.05505 22.69901 36065 ft 423 kts 345°
2026-05-05 09:43 45.11210 22.67797 36067 ft 424 kts 345°
2026-05-05 09:43 45.16878 22.65705 36063 ft 424 kts 345°
2026-05-05 09:44 45.22592 22.63598 36062 ft 424 kts 345°
2026-05-05 09:44 45.28310 22.61483 36060 ft 424 kts 345°
2026-05-05 09:45 45.34029 22.59370 36061 ft 425 kts 345°
2026-05-05 09:45 45.39768 22.57247 36061 ft 425 kts 345°
2026-05-05 09:46 45.45467 22.55126 36057 ft 425 kts 345°
2026-05-05 09:46 45.51209 22.52978 36056 ft 426 kts 345°
2026-05-05 09:47 45.56947 22.50831 36052 ft 426 kts 345°
2026-05-05 09:47 45.62666 22.48695 36049 ft 426 kts 345°
2026-05-05 09:48 45.68412 22.46536 36047 ft 427 kts 345°
2026-05-05 09:48 45.74135 22.44378 36050 ft 427 kts 345°
2026-05-05 09:49 45.79892 22.42208 36055 ft 427 kts 345°
2026-05-05 09:49 45.85660 22.40032 36058 ft 428 kts 345°
2026-05-05 09:50 45.91396 22.37866 36058 ft 428 kts 345°
2026-05-05 09:50 45.97163 22.35681 36059 ft 428 kts 345°
2026-05-05 09:51 46.02944 22.33481 36060 ft 428 kts 345°
2026-05-05 09:51 46.08710 22.31277 36060 ft 429 kts 345°
2026-05-05 09:52 46.14448 22.29089 36061 ft 428 kts 345°
2026-05-05 09:52 46.20214 22.26885 36059 ft 428 kts 345°
2026-05-05 09:53 46.25989 22.24668 36058 ft 428 kts 345°
2026-05-05 09:53 46.31755 22.22454 36054 ft 428 kts 345°
2026-05-05 09:54 46.37485 22.20253 36053 ft 428 kts 345°
2026-05-05 09:54 46.43256 22.18017 36053 ft 428 kts 344°
2026-05-05 09:55 46.49026 22.15784 36045 ft 428 kts 345°
2026-05-05 09:55 46.54751 22.13562 36043 ft 428 kts 344°
2026-05-05 09:56 46.60506 22.11321 36045 ft 428 kts 345°
2026-05-05 09:56 46.66270 22.09061 36045 ft 428 kts 344°
2026-05-05 09:57 46.71985 22.06770 36046 ft 428 kts 344°
2026-05-05 09:57 46.77734 22.04444 36050 ft 429 kts 344°
2026-05-05 09:58 46.83497 22.02114 36052 ft 429 kts 344°
2026-05-05 09:58 46.89226 21.99811 36059 ft 429 kts 344°
2026-05-05 09:59 46.95005 21.97477 36066 ft 430 kts 344°
2026-05-05 09:59 47.00780 21.95133 36069 ft 430 kts 344°
2026-05-05 10:00 47.06524 21.92800 36069 ft 430 kts 344°
2026-05-05 10:00 47.12298 21.90448 36068 ft 430 kts 344°
2026-05-05 10:01 47.18075 21.88085 36060 ft 430 kts 343°
2026-05-05 10:01 47.23860 21.85719 36056 ft 431 kts 343°
2026-05-05 10:02 47.29644 21.83352 36056 ft 431 kts 343°
2026-05-05 10:02 47.35400 21.80982 36058 ft 431 kts 343°
2026-05-05 10:03 47.41192 21.78590 36058 ft 432 kts 343°
2026-05-05 10:03 47.46989 21.76196 36065 ft 432 kts 343°
2026-05-05 10:04 47.52783 21.73785 36059 ft 432 kts 343°
2026-05-05 10:04 47.58554 21.71402 36060 ft 432 kts 343°
2026-05-05 10:05 47.64360 21.69014 36063 ft 433 kts 343°
2026-05-05 10:05 47.70166 21.66597 36054 ft 433 kts 343°
2026-05-05 10:06 47.75934 21.64176 36055 ft 433 kts 343°
2026-05-05 10:06 47.81735 21.61742 36041 ft 433 kts 343°
2026-05-05 10:07 47.87547 21.59306 36040 ft 433 kts 343°
2026-05-05 10:07 47.93315 21.56888 36043 ft 433 kts 343°
2026-05-05 10:08 47.99134 21.54443 36042 ft 434 kts 343°
2026-05-05 10:08 48.04919 21.51992 36039 ft 434 kts 343°
2026-05-05 10:09 48.10728 21.49529 36040 ft 434 kts 343°
2026-05-05 10:09 48.16552 21.47057 36035 ft 434 kts 343°
2026-05-05 10:10 48.22342 21.44588 36032 ft 434 kts 342°
2026-05-05 10:10 48.28154 21.42106 36028 ft 434 kts 342°
2026-05-05 10:11 48.33975 21.39626 36029 ft 434 kts 343°
2026-05-05 10:11 48.39761 21.37148 36023 ft 434 kts 343°
2026-05-05 10:12 48.45580 21.34642 36019 ft 435 kts 342°
2026-05-05 10:12 48.51409 21.32133 36012 ft 435 kts 342°
2026-05-05 10:13 48.57204 21.29629 36010 ft 435 kts 342°
2026-05-05 10:13 48.63042 21.27105 36013 ft 436 kts 342°
2026-05-05 10:14 48.68876 21.24734 36012 ft 437 kts 348°
2026-05-05 10:14 48.74916 21.23478 36012 ft 438 kts 350°
2026-05-05 10:15 48.80959 21.22261 36012 ft 438 kts 350°
2026-05-05 10:15 48.87016 21.21031 36012 ft 438 kts 350°
2026-05-05 10:16 48.93031 21.19806 36014 ft 439 kts 350°
2026-05-05 10:16 48.99102 21.18571 36012 ft 439 kts 350°
2026-05-05 10:17 49.05131 21.17333 36012 ft 440 kts 350°
2026-05-05 10:17 49.11210 21.16081 36008 ft 441 kts 350°
2026-05-05 10:18 49.16276 21.15039 36008 ft 441 kts 349°
2026-05-05 10:18 49.23353 21.13582 36005 ft 441 kts 349°
2026-05-05 10:19 49.28427 21.12662 35964 ft 443 kts 357°
2026-05-05 10:19 49.31504 21.13175 35725 ft 447 kts
2026-05-05 10:19 49.34545 21.14197 35465 ft 448 kts 10°
2026-05-05 10:20 49.37590 21.15254 35214 ft 448 kts 10°
2026-05-05 10:20 49.40641 21.16327 34978 ft 449 kts 10°
2026-05-05 10:20 49.46730 21.18471 34964 ft 450 kts 10°
2026-05-05 10:21 49.52841 21.20598 34961 ft 450 kts 10°
2026-05-05 10:21 49.58921 21.22705 34957 ft 450 kts 10°
2026-05-05 10:22 49.65038 21.24837 34955 ft 451 kts 10°
2026-05-05 10:22 49.71169 21.26989 34950 ft 451 kts 10°
2026-05-05 10:23 49.77261 21.29127 34948 ft 451 kts 11°
2026-05-05 10:23 49.83381 21.31280 34947 ft 451 kts 11°
2026-05-05 10:24 49.89511 21.33451 34944 ft 451 kts 10°
2026-05-05 10:24 49.95654 21.35623 34936 ft 451 kts 10°
2026-05-05 10:25 50.01757 21.37781 34934 ft 452 kts 11°
2026-05-05 10:25 50.07889 21.39962 34936 ft 452 kts 11°
2026-05-05 10:26 50.14025 21.42156 34932 ft 452 kts 11°
2026-05-05 10:26 50.20130 21.44343 34927 ft 452 kts 11°
2026-05-05 10:27 50.26261 21.46544 34927 ft 452 kts 11°
2026-05-05 10:27 50.32409 21.48755 34929 ft 452 kts 11°
2026-05-05 10:28 50.38551 21.50967 34925 ft 453 kts 11°
2026-05-05 10:28 50.44660 21.53167 34923 ft 453 kts 11°
2026-05-05 10:29 50.50797 21.55392 34919 ft 453 kts 11°
2026-05-05 10:29 50.56951 21.57640 34919 ft 453 kts 11°
2026-05-05 10:30 50.63110 21.59881 34918 ft 454 kts 11°
2026-05-05 10:30 50.69230 21.62097 34919 ft 454 kts 11°
2026-05-05 10:31 50.75388 21.64345 34911 ft 454 kts 11°
2026-05-05 10:31 50.81562 21.66631 34913 ft 455 kts 11°
2026-05-05 10:32 50.87700 21.68901 34909 ft 455 kts 11°
2026-05-05 10:32 50.93886 21.71176 34906 ft 456 kts 11°
2026-05-05 10:33 51.00070 21.73465 34908 ft 456 kts 11°
2026-05-05 10:33 51.06252 21.75758 34904 ft 456 kts 11°
2026-05-05 10:34 51.12406 21.78049 34899 ft 456 kts 11°
2026-05-05 10:34 51.18616 21.80369 34902 ft 458 kts 11°
2026-05-05 10:35 51.24790 21.82679 34895 ft 458 kts 11°
2026-05-05 10:35 51.31014 21.85009 34900 ft 458 kts 11°
2026-05-05 10:36 51.37223 21.87354 34891 ft 458 kts 11°
2026-05-05 10:36 51.43409 21.89692 34902 ft 459 kts 11°
2026-05-05 10:37 51.49664 21.92059 34896 ft 459 kts 11°
2026-05-05 10:37 51.55852 21.94411 34896 ft 459 kts 11°
2026-05-05 10:38 51.62087 21.96784 34896 ft 460 kts 11°
2026-05-05 10:38 51.68284 21.99143 34902 ft 460 kts 11°
2026-05-05 10:39 51.74527 22.01536 34900 ft 460 kts 11°
2026-05-05 10:39 51.80762 22.03931 34897 ft 460 kts 11°
2026-05-05 10:40 51.87000 22.06332 34898 ft 460 kts 10°
2026-05-05 10:40 51.93199 22.08720 34895 ft 461 kts 11°
2026-05-05 10:41 51.99452 22.11137 34896 ft 461 kts 11°
2026-05-05 10:41 52.05704 22.13568 34896 ft 461 kts 11°
2026-05-05 10:42 52.15054 22.17211 34893 ft 462 kts 11°
2026-05-05 10:43 52.21318 22.19657 34896 ft 462 kts 11°
2026-05-05 10:43 52.27592 22.22124 34895 ft 463 kts 11°
2026-05-05 10:44 52.33817 22.24580 34897 ft 463 kts 11°
2026-05-05 10:44 52.40081 22.27059 34898 ft 463 kts 11°
2026-05-05 10:45 52.46355 22.29536 34902 ft 463 kts 11°
2026-05-05 10:45 52.52628 22.32020 34895 ft 463 kts 11°
2026-05-05 10:46 52.58866 22.34502 34899 ft 463 kts 11°
2026-05-05 10:46 52.65143 22.37009 34901 ft 464 kts 11°
2026-05-05 10:47 52.71432 22.39529 34903 ft 464 kts 11°
2026-05-05 10:47 52.77677 22.42030 34903 ft 464 kts 10°
2026-05-05 10:48 52.83971 22.44555 34902 ft 464 kts 10°
2026-05-05 10:48 52.90257 22.47101 34902 ft 464 kts 11°
2026-05-05 10:49 52.96495 22.49636 34905 ft 465 kts 10°
2026-05-05 10:49 53.02787 22.52191 34905 ft 465 kts 10°
2026-05-05 10:50 53.09078 22.54755 34911 ft 465 kts 10°
2026-05-05 10:50 53.15380 22.57326 34910 ft 465 kts 10°
2026-05-05 10:51 53.21636 22.59890 34912 ft 465 kts 10°
2026-05-05 10:51 53.27923 22.62484 34907 ft 465 kts 10°
2026-05-05 10:52 53.34217 22.65084 34907 ft 465 kts 10°
2026-05-05 10:52 53.40465 22.67665 34912 ft 465 kts 10°
2026-05-05 10:53 53.46767 22.70277 34916 ft 466 kts 10°
2026-05-05 10:53 53.53066 22.72898 34917 ft 466 kts 10°
2026-05-05 10:54 53.59377 22.75538 34920 ft 466 kts 10°
2026-05-05 10:54 53.65639 22.78167 34923 ft 466 kts 10°
2026-05-05 10:55 53.71946 22.80819 34908 ft 466 kts 10°
2026-05-05 10:55 53.78255 22.83463 34919 ft 466 kts 10°
2026-05-05 10:56 53.84517 22.86107 34920 ft 467 kts 10°
2026-05-05 10:56 53.90829 22.88793 34919 ft 467 kts 10°
2026-05-05 10:57 53.97153 22.91492 34921 ft 468 kts
2026-05-05 10:57 54.03473 22.94194 34922 ft 468 kts
2026-05-05 10:58 54.09761 22.96884 34922 ft 469 kts
2026-05-05 10:58 54.16115 22.99600 34922 ft 469 kts
2026-05-05 10:59 54.22453 23.02324 34922 ft 469 kts
2026-05-05 10:59 54.28758 23.05054 34919 ft 470 kts
2026-05-05 11:00 54.35096 23.07859 34923 ft 471 kts 10°
2026-05-05 11:00 54.41441 23.10807 34921 ft 472 kts 11°
2026-05-05 11:01 54.47777 23.13814 34925 ft 472 kts 11°
2026-05-05 11:01 54.54075 23.16828 34925 ft 472 kts 11°
2026-05-05 11:02 54.60417 23.19864 34920 ft 473 kts 11°
2026-05-05 11:02 54.66764 23.22894 34924 ft 473 kts 11°
2026-05-05 11:03 54.72047 23.25429 34921 ft 473 kts 11°
2026-05-05 11:03 54.78403 23.28495 34921 ft 474 kts 11°
2026-05-05 11:04 54.84763 23.31570 34921 ft 474 kts 11°
2026-05-05 11:04 54.91087 23.34635 34912 ft 474 kts 10°
2026-05-05 11:05 54.97460 23.37729 34916 ft 475 kts 10°
2026-05-05 11:05 55.03832 23.40829 34925 ft 475 kts 10°
2026-05-05 11:06 55.10172 23.43935 34923 ft 475 kts 10°
2026-05-05 11:06 55.16562 23.47067 34920 ft 476 kts 10°
2026-05-05 11:07 55.22948 23.50222 34919 ft 476 kts 10°
2026-05-05 11:07 55.29326 23.53384 34921 ft 476 kts 10°
2026-05-05 11:08 55.35687 23.56536 34909 ft 476 kts 10°
2026-05-05 11:08 55.42073 23.59705 34908 ft 476 kts 10°
2026-05-05 11:09 55.48407 23.62879 34904 ft 476 kts 10°
2026-05-05 11:09 55.54787 23.66078 34905 ft 476 kts 10°
2026-05-05 11:10 55.61145 23.69268 34908 ft 476 kts 10°
2026-05-05 11:10 55.66959 23.72195 34909 ft 476 kts 10°
2026-05-05 11:11 55.73339 23.75416 34907 ft 476 kts 10°
2026-05-05 11:11 55.79666 23.78635 34908 ft 476 kts 10°
2026-05-05 11:12 55.86048 23.81899 34905 ft 476 kts 10°
2026-05-05 11:12 55.92425 23.85156 34906 ft 476 kts
2026-05-05 11:13 55.98805 23.88417 34891 ft 477 kts
2026-05-05 11:13 56.05154 23.91684 34887 ft 477 kts
2026-05-05 11:14 56.11547 23.94974 34886 ft 478 kts
2026-05-05 11:14 56.17951 23.98292 34873 ft 478 kts
2026-05-05 11:15 56.24317 24.01605 34870 ft 479 kts
2026-05-05 11:15 56.30735 24.04958 34868 ft 479 kts
2026-05-05 11:16 56.37109 24.08305 34865 ft 479 kts
2026-05-05 11:16 56.43537 24.11679 34862 ft 480 kts
2026-05-05 11:17 56.49949 24.15045 34865 ft 480 kts
2026-05-05 11:17 56.56378 24.18446 34862 ft 480 kts
2026-05-05 11:18 56.62793 24.21856 34863 ft 480 kts
2026-05-05 11:18 56.69180 24.25269 34863 ft 481 kts
2026-05-05 11:19 56.75613 24.28727 34864 ft 481 kts
2026-05-05 11:19 56.82038 24.32183 34863 ft 481 kts
2026-05-05 11:20 56.88418 24.35613 34863 ft 480 kts
2026-05-05 11:20 56.94851 24.39089 34865 ft 480 kts
2026-05-05 11:21 57.01268 24.42562 34866 ft 480 kts
2026-05-05 11:21 57.07640 24.46012 34870 ft 480 kts
2026-05-05 11:22 57.14045 24.49519 34874 ft 480 kts 10°
2026-05-05 11:22 57.20449 24.53044 34874 ft 479 kts 10°
2026-05-05 11:23 57.26807 24.56542 34875 ft 479 kts 10°
2026-05-05 11:23 57.33211 24.60077 34872 ft 479 kts 10°
2026-05-05 11:24 57.39610 24.63628 34882 ft 479 kts 10°
2026-05-05 11:24 57.45966 24.67164 34880 ft 479 kts 10°
2026-05-05 11:25 57.52360 24.70739 34879 ft 479 kts 10°
2026-05-05 11:25 57.58760 24.74325 34875 ft 479 kts 10°
2026-05-05 11:26 57.65116 24.77894 34872 ft 479 kts 11°
2026-05-05 11:26 57.71500 24.81494 34866 ft 479 kts 11°
2026-05-05 11:27 57.77883 24.85122 34866 ft 479 kts 11°
2026-05-05 11:27 57.84273 24.88759 34861 ft 479 kts 11°
2026-05-05 11:28 57.90619 24.92375 34859 ft 479 kts 11°
2026-05-05 11:28 57.97003 24.96035 34856 ft 479 kts 11°
2026-05-05 11:29 58.03443 24.98985 34853 ft 471 kts
2026-05-05 11:29 58.09957 25.00592 34847 ft 471 kts
2026-05-05 11:30 58.16429 25.02201 34843 ft 472 kts
2026-05-05 11:30 58.22941 25.03854 34843 ft 472 kts
2026-05-05 11:31 58.29464 25.05507 34835 ft 472 kts
2026-05-05 11:31 58.35984 25.07159 34833 ft 472 kts
2026-05-05 11:32 58.42475 25.08814 34814 ft 472 kts
2026-05-05 11:32 58.48994 25.10482 34807 ft 473 kts
2026-05-05 11:33 58.55535 25.12159 34801 ft 474 kts
2026-05-05 11:33 58.62088 25.13844 34797 ft 474 kts
2026-05-05 11:34 58.68601 25.15525 34800 ft 475 kts
2026-05-05 11:34 58.75167 25.17223 34792 ft 475 kts
2026-05-05 11:35 58.81694 25.18938 34788 ft 476 kts
2026-05-05 11:35 58.88276 25.20673 34790 ft 477 kts
2026-05-05 11:36 58.94859 25.22389 34790 ft 477 kts
2026-05-05 11:36 59.01447 25.24115 34791 ft 478 kts
2026-05-05 11:37 59.08047 25.25855 34792 ft 478 kts
2026-05-05 11:37 59.14610 25.27608 34158 ft 476 kts
2026-05-05 11:37 59.17877 25.28475 32868 ft 482 kts
2026-05-05 11:38 59.21225 25.29362 31384 ft 487 kts
2026-05-05 11:38 59.24558 25.30256 30529 ft 477 kts
2026-05-05 11:38 59.27832 25.31146 29359 ft 474 kts
2026-05-05 11:38 59.31095 25.32030 28259 ft 467 kts
2026-05-05 11:39 59.34253 25.32891 27197 ft 464 kts 360°
2026-05-05 11:39 59.37472 25.33759 25924 ft 466 kts 360°
2026-05-05 11:39 59.40693 25.34616 24704 ft 468 kts 359°
2026-05-05 11:39 59.43921 25.34993 23556 ft 456 kts 351°
2026-05-05 11:40 59.47027 25.34525 22626 ft 441 kts 342°
2026-05-05 11:40 59.49970 25.33377 21836 ft 432 kts 338°
2026-05-05 11:40 59.52893 25.32078 21028 ft 428 kts 338°
2026-05-05 11:40 59.55787 25.30802 20217 ft 423 kts 338°
2026-05-05 11:41 59.58650 25.29539 19414 ft 418 kts 338°
2026-05-05 11:41 59.61475 25.28286 18639 ft 414 kts 338°
2026-05-05 11:41 59.64279 25.27037 17824 ft 409 kts 338°
2026-05-05 11:41 59.67026 25.25806 17018 ft 409 kts 338°
2026-05-05 11:42 59.69793 25.24560 16365 ft 406 kts 338°
2026-05-05 11:42 59.72511 25.23350 16224 ft 390 kts 338°
2026-05-05 11:42 59.75109 25.22203 16093 ft 374 kts 338°
2026-05-05 11:42 59.77603 25.21102 15966 ft 360 kts 338°
2026-05-05 11:43 59.80104 25.20717 15835 ft 364 kts 356°
2026-05-05 11:43 59.82592 25.21644 15712 ft 360 kts
2026-05-05 11:43 59.85000 25.22738 15549 ft 351 kts
2026-05-05 11:43 59.87335 25.23807 15336 ft 344 kts
2026-05-05 11:44 59.89663 25.24786 15236 ft 338 kts 358°
2026-05-05 11:44 59.91979 25.25010 14915 ft 330 kts 346°
2026-05-05 11:44 59.94255 25.24672 14552 ft 326 kts 345°
2026-05-05 11:44 59.96524 25.24324 14106 ft 328 kts 345°
2026-05-05 11:45 59.98790 25.23994 13846 ft 324 kts 345°
2026-05-05 11:45 60.01006 25.23677 13512 ft 322 kts 345°
2026-05-05 11:45 60.03240 25.23356 13133 ft 321 kts 345°
2026-05-05 11:45 60.05464 25.23038 12767 ft 319 kts 345°
2026-05-05 11:46 60.07680 25.22723 12404 ft 317 kts 345°
2026-05-05 11:46 60.09877 25.22422 12061 ft 315 kts 345°
2026-05-05 11:46 60.12028 25.22114 11711 ft 313 kts 345°
2026-05-05 11:46 60.14206 25.21795 11374 ft 311 kts 345°
2026-05-05 11:47 60.16359 25.21481 11034 ft 309 kts 345°
2026-05-05 11:47 60.17777 25.21279 10823 ft 308 kts 345°
2026-05-05 11:47 60.19916 25.20978 10492 ft 306 kts 345°
2026-05-05 11:47 60.22038 25.20678 10145 ft 303 kts 346°
2026-05-05 11:48 60.26198 25.20076 8954 ft 296 kts 346°
2026-05-05 11:48 60.28238 25.19788 8357 ft 293 kts 349°
2026-05-05 11:48 60.30287 25.20161 7800 ft 299 kts
2026-05-05 11:49 60.32221 25.21761 7269 ft 303 kts 27°
2026-05-05 11:49 60.33830 25.24479 6904 ft 297 kts 46°
2026-05-05 11:49 60.35151 25.27516 6771 ft 279 kts 45°
2026-05-05 11:49 60.36410 25.30334 6484 ft 269 kts 44°
2026-05-05 11:50 60.37664 25.33101 6145 ft 263 kts 43°
2026-05-05 11:50 60.39106 25.35169 5732 ft 249 kts 14°
2026-05-05 11:50 60.40756 25.35599 5285 ft 234 kts 347°
2026-05-05 11:50 60.42238 25.34524 4753 ft 222 kts 321°
2026-05-05 11:51 60.43396 25.32511 4277 ft 216 kts 314°
2026-05-05 11:51 60.44421 25.30441 4083 ft 197 kts 301°
2026-05-05 11:51 60.44948 25.28040 3939 ft 182 kts 279°
2026-05-05 11:51 60.44950 25.25594 3766 ft 167 kts 259°
2026-05-05 11:52 60.44534 25.23500 3581 ft 163 kts 241°
2026-05-05 11:52 60.43797 25.21725 3372 ft 164 kts 232°
2026-05-05 11:52 60.43030 25.20014 3174 ft 164 kts 232°
2026-05-05 11:52 60.42261 25.18300 2936 ft 163 kts 232°
2026-05-05 11:53 60.41496 25.16598 2705 ft 162 kts 232°
2026-05-05 11:53 60.40755 25.14950 2489 ft 158 kts 232°
2026-05-05 11:53 60.40028 25.13334 2272 ft 154 kts 231°
2026-05-05 11:53 60.39314 25.11741 1996 ft 152 kts 232°
2026-05-05 11:54 60.38625 25.10219 1796 ft 142 kts 232°
2026-05-05 11:54 60.37969 25.08786 1580 ft 137 kts 233°
2026-05-05 11:54 60.37332 25.07361 1371 ft 135 kts 233°
2026-05-05 11:54 60.36694 25.05956 1178 ft 135 kts 231°
2026-05-05 11:55 60.36056 25.04604 1059 ft 135 kts 230°
2026-05-05 11:55 60.35425 25.03216 899 ft 134 kts 234°
2026-05-05 11:55 60.34816 25.01783 756 ft 134 kts 232°
2026-05-05 11:55 60.34183 25.00387 573 ft 134 kts 232°
2026-05-05 11:56 60.33566 24.99009 381 ft 134 kts 232°
2026-05-05 11:56 60.32931 24.97629 208 ft 134 kts 232°
2026-05-05 11:56 60.32440 24.96525 163 ft 60 kts 228°
2026-05-05 11:56 60.32212 24.96027 165 ft 37 kts 227°
2026-05-05 11:57 60.32056 24.95751 163 ft 23 kts 211°
2026-05-05 11:57 60.31940 24.95648 163 ft 14 kts 198°
2026-05-05 11:57 60.31918 24.95633 163 ft 0 kts 198°
2026-05-05 11:58 60.31917 24.95632 163 ft 3 kts 198°
2026-05-05 11:59 60.31844 24.95603 163 ft 11 kts 171°
2026-05-05 11:59 60.31820 24.95625 163 ft 7 kts 154°
2026-05-05 11:59 60.31751 24.95578 163 ft 15 kts 227°
2026-05-05 11:59 60.31650 24.95635 163 ft 13 kts 139°
2026-05-05 12:00 60.31665 24.95775 164 ft 17 kts 46°
2026-05-05 12:00 60.31751 24.95964 164 ft 19 kts 48°
2026-05-05 12:00 60.31843 24.96164 164 ft 17 kts 62°
2026-05-05 12:00 60.31888 24.96406 164 ft 20 kts 48°
2026-05-05 12:01 60.31984 24.96617 164 ft 19 kts 47°
2026-05-05 12:01 60.32068 24.96801 163 ft 17 kts 47°
2026-05-05 12:01 60.32083 24.96927 163 ft 8 kts 164°
2026-05-05 12:01 60.32028 24.96982 163 ft 10 kts 152°
2026-05-05 12:02 60.31959 24.97056 162 ft 13 kts 152°
2026-05-05 12:02 60.31874 24.97145 162 ft 15 kts 153°
2026-05-05 12:02 60.31775 24.97247 162 ft 17 kts 153°
2026-05-05 12:02 60.31674 24.97360 161 ft 8 kts 144°
2026-05-05 12:03 60.31648 24.97316 161 ft 6 kts 239°
2026-05-05 12:03 60.31635 24.97265 161 ft 0 kts 243°